Lapse_Rate
7.9 9.0 9.5 6.3 5.7 7.6 9.7 5.4 9.1 9.3 9.6 9.6 9.5 9.6 9.7 9.4 9.7 9.4 7.2 5.6 5.6 6.0 6.4 6.6 6.0 6.1 6.2 6.2 6.2 6.3 6.1 6.1 5.9 5.8 5.7 5.7 5.7 5.7 5.5 5.5 5.7 5.7 5.6
8.1 8.2 9.7 7.5 8.1 8.0 9.2 8.3 8.6 9.0 9.3 9.6 9.5 9.2 9.3 9.6 9.1 8.4 8.6 6.3 5.5 5.6 5.9 6.0 6.0 6.1 6.0 5.9 6.2 6.1 6.1 5.7 5.7 6.0 6.0 6.1 6.0 6.0 5.9 5.9 5.8 5.8 5.7
9.2 8.2 9.2 7.1 8.3 9.4 9.1 9.3 9.6 9.5 9.8 9.3 8.3 9.6 9.5 9.4 9.7 9.5 8.5 9.1 6.7 5.5 5.9 5.8 5.6 5.7 5.9 5.9 6.1 6.1 5.9 5.8 5.8 5.9 5.9 5.9 5.8 5.7 5.9 5.9 5.8 5.8 5.7
8.2 8.5 8.7 7.6 9.5 9.5 8.3 6.2 9.3 8.1 9.6 9.0 6.8 8.3 8.2 9.5 9.7 9.6 8.3 8.8 7.2 9.1 5.9 5.8 5.8 5.8 5.9 6.0 6.1 6.3 6.2 6.1 5.9 6.0 6.0 6.0 6.0 6.0 6.0 5.8 5.6 5.3 5.1
8.2 9.3 9.2 8.9 8.5 9.3 7.8 9.4 8.6 8.6 9.3 8.6 7.4 9.0 9.0 9.6 9.1 9.7 9.7 9.6 8.7 7.9 7.7 5.9 5.7 5.5 5.7 6.0 6.3 6.3 6.2 6.0 6.0 5.8 5.6 5.6 5.5 5.4 5.5 5.1 4.8 4.7 4.6
8.6 9.1 8.4 9.1 9.0 8.5 9.6 7.4 9.4 7.7 7.8 6.7 9.5 9.5 9.0 9.7 9.8 9.7 9.7 9.7 9.6 9.6 7.1 7.3 6.2 5.8 5.6 6.0 5.7 5.7 6.1 5.9 5.8 5.5 5.3 5.1 4.7 4.6 4.4 4.3 4.4 4.6 4.8
8.7 8.2 8.2 8.4 8.9 8.6 4.0 9.5 9.1 8.4 9.3 9.3 9.2 9.3 9.5 9.7 9.6 9.8 9.8 9.8 9.7 9.7 9.7 9.6 9.4 8.5 6.9 6.0 5.5 5.3 5.4 5.4 5.3 4.7 4.3 4.2 4.1 3.9 4.0 4.1 4.4 4.7 4.8
8.9 9.5 7.0 9.5 8.7 9.3 9.5 9.5 9.4 6.4 9.3 8.4 6.4 8.6 8.1 8.7 9.5 9.7 9.8 9.9 9.7 9.8 9.7 9.6 9.7 9.3 9.4 8.4 6.3 4.7 4.6 4.8 4.6 4.5 4.1 3.9 3.8 3.8 3.9 4.1 4.4 4.6 4.7
9.5 9.6 8.6 8.0 8.6 8.3 9.5 9.3 8.7 8.6 6.9 9.3 9.0 8.2 7.6 5.6 8.3 9.4 9.3 9.7 9.5 9.7 9.8 9.3 9.7 9.6 9.6 9.4 7.0 5.9 4.7 4.3 4.4 4.4 4.3 4.0 4.0 4.2 4.4 4.4 4.4 4.5 4.7
9.5 9.4 9.1 9.5 9.1 7.9 8.3 9.4 8.9 8.0 7.5 8.8 9.3 9.6 8.4 8.8 6.9 6.0 9.2 9.4 9.7 9.7 9.7 9.8 9.5 9.6 9.6 9.6 8.2 6.9 5.1 4.2 4.1 4.4 4.5 4.5 4.4 4.5 4.5 4.5 4.6 4.7 4.7
9.5 9.5 9.2 9.5 9.2 8.9 8.9 7.8 8.6 8.1 9.2 7.8 9.1 9.1 9.1 9.2 8.7 7.1 8.0 8.6 9.3 9.6 9.8 9.7 9.8 9.8 9.0 9.7 9.6 8.2 5.8 4.5 4.1 4.1 4.4 4.6 4.6 4.6 4.7 4.8 4.7 4.8 4.9
9.7 9.5 9.5 8.3 9.4 9.6 8.7 9.5 9.5 8.4 8.0 8.9 8.8 9.0 9.1 8.4 7.5 8.7 8.4 7.9 8.4 9.1 9.7 9.8 9.8 9.8 9.7 9.6 8.9 6.9 5.8 4.9 4.1 3.9 4.0 4.1 4.2 4.4 4.8 5.0 5.0 5.0 5.1
9.6 8.5 9.1 9.2 9.4 8.4 9.5 9.5 8.5 8.4 9.3 9.3 7.8 9.3 9.5 9.3 9.4 9.2 8.8 8.6 8.5 9.1 9.3 9.7 9.8 9.7 9.7 9.6 9.6 8.0 5.5 5.0 4.5 4.0 3.7 3.8 3.9 4.0 4.2 4.6 5.0 5.2 5.4
9.6 8.4 8.2 9.5 9.4 9.5 9.4 9.2 9.5 9.5 9.2 9.2 9.1 7.9 9.3 9.6 9.6 9.4 9.1 8.7 8.3 8.6 8.8 8.5 9.8 9.8 9.7 9.7 9.0 7.6 8.0 5.6 5.0 4.2 3.7 3.7 3.6 3.7 3.7 3.9 4.2 4.6 4.8
9.7 9.6 9.5 9.5 9.5 9.5 9.4 9.4 9.5 8.8 9.2 9.0 9.0 9.1 8.9 9.6 9.7 9.7 9.6 9.4 8.7 8.0 8.2 8.2 9.1 9.1 9.2 9.7 9.5 8.2 8.3 7.1 4.6 3.6 3.3 3.2 3.3 3.0 2.9 3.2 3.3 3.6 3.9
9.1 9.3 9.4 9.6 9.5 9.6 9.5 9.2 9.4 9.3 9.2 9.5 9.6 8.7 8.9 9.6 9.7 9.7 9.6 9.5 9.4 8.8 8.2 9.1 9.3 9.5 9.6 9.3 9.1 8.4 8.8 8.1 5.5 4.3 3.8 2.9 2.2 2.2 2.1 2.0 2.4 2.5 2.9
9.4 8.6 9.2 9.4 9.5 9.6 9.6 9.2 9.0 9.2 8.7 9.2 9.0 9.3 9.1 8.9 9.5 9.6 9.6 9.5 9.3 9.2 8.6 9.0 9.4 9.4 8.7 7.6 7.9 7.4 7.4 8.3 9.5 7.4 5.6 4.1 2.6 2.2 2.0 1.6 1.5 1.8 2.1
9.0 9.3 8.2 9.1 9.1 9.4 9.5 9.3 9.2 9.4 9.3 9.1 9.2 9.2 9.2 9.6 8.7 7.9 8.8 8.6 8.9 8.8 8.9 7.6 8.4 9.2 8.4 8.5 8.2 7.7 8.2 9.3 9.4 9.3 5.4 4.1 2.7 1.4 1.1 1.1 1.0 0.9 1.3
7.9 8.4 8.4 8.1 8.7 9.3 9.3 9.4 9.3 9.3 9.4 9.4 9.4 9.2 9.3 9.3 8.9 9.1 9.1 9.1 9.3 8.8 9.0 8.9 8.8 9.4 9.4 9.5 9.0 8.3 7.6 8.2 8.6 8.7 7.3 5.9 3.8 2.0 1.2 0.5 0.3 -0.1 -0.1
7.0 7.0 7.4 7.5 7.9 8.9 9.4 9.5 9.5 9.3 9.5 9.5 9.5 9.5 9.4 9.4 9.0 8.8 8.5 8.2 8.4 8.2 8.7 9.0 9.2 9.2 9.3 9.0 9.0 8.9 9.0 9.4 9.3 9.7 9.6 9.3 8.0 2.7 0.9 -0.1 -0.3 -0.9 -1.1
6.9 6.6 6.8 7.5 7.9 9.2 9.8 9.2 9.4 9.5 9.3 9.3 9.5 9.5 9.5 8.9 6.5 7.3 9.4 8.5 8.2 8.9 9.1 9.2 9.1 9.1 9.2 9.1 8.3 9.3 9.0 9.5 9.3 9.3 9.7 10.0 10.0 9.9 8.6 1.5 1.8 -0.3 -1.0
7.0 6.5 6.8 7.0 7.4 9.4 6.1 3.4 7.3 9.4 9.4 9.0 9.1 9.2 9.2 5.7 5.8 3.2 2.2 1.9 3.3 6.6 7.3 8.6 9.1 8.9 7.3 8.2 9.5 9.3 9.1 9.2 9.1 9.6 8.9 9.1 9.5 9.7 10.1 9.7 9.2 3.7 1.5
6.5 6.3 6.4 6.9 6.8 6.9 2.5 1.7 2.5 8.9 9.4 9.1 8.7 8.7 9.2 9.8 6.2 8.7 3.1 1.9 1.5 0.5 0.7 4.9 5.5 6.0 6.2 6.3 6.7 6.9 8.0 8.4 8.3 8.8 8.1 8.3 9.2 8.7 9.6 9.5 9.0 7.8 4.2
6.0 6.1 6.1 6.2 6.5 6.9 1.0 -0.9 1.0 7.3 8.3 8.3 9.0 8.5 7.8 7.9 8.2 8.4 9.1 9.1 8.0 6.6 4.5 4.1 4.6 5.2 5.9 6.3 7.1 8.2 8.0 7.7 8.0 9.1 7.4 7.7 9.1 9.2 9.9 10.1 8.5 6.5 5.4
6.1 6.1 6.0 5.7 5.8 6.0 -0.2 -1.9 -0.2 7.0 8.0 7.1 7.4 7.3 8.2 8.0 4.6 0.4 6.7 6.9 7.2 7.5 8.5 6.8 5.2 5.6 5.1 4.6 3.9 6.4 7.1 8.1 8.6 9.0 8.7 8.0 9.1 9.4 9.5 8.4 9.5 9.1 8.4
5.9 6.8 6.4 6.1 4.9 5.7 -1.1 -2.9 -0.9 7.3 8.5 8.3 7.0 5.9 1.3 3.8 1.1 -1.8 5.2 6.2 6.5 6.5 7.0 7.8 8.3 6.1 2.0 5.3 2.2 3.6 7.4 6.4 6.8 7.4 8.6 7.6 8.6 9.2 8.6 9.1 9.7 9.4 8.2
Wind_Speed
2 2 4 5 20 13 6 17 7 5 1 7 1 8 7 8 3 19 15 11 8 8 8 9 7 6 5 4 4 4 3 2 2 3 4 3 4 5 6 6 6 7 8
9 2 1 7 7 5 6 11 6 6 4 8 6 2 8 9 7 18 16 12 10 7 7 6 5 4 4 2 1 1 0 1 2 3 3 4 5 6 6 7 7 8 8
2 6 2 2 4 6 3 7 2 2 4 10 5 2 11 9 8 10 11 11 12 10 9 8 6 4 3 3 3 3 3 3 3 3 4 5 6 6 6 6 7 7 7
1 4 3 1 7 5 13 11 3 4 2 4 5 8 4 9 6 7 15 7 12 9 11 10 8 6 5 4 5 5 5 5 5 5 7 7 8 7 6 6 5 5 4
5 7 2 4 2 5 2 3 3 1 5 3 8 6 4 5 5 10 5 5 8 15 10 13 13 10 9 7 5 4 4 5 5 6 6 6 6 5 3 2 3 5 5
6 7 0 3 5 3 5 2 2 4 3 4 4 7 2 4 2 6 7 7 7 7 20 13 13 13 13 9 5 3 4 4 3 3 3 2 2 0 3 3 5 6 5
7 5 7 6 8 8 6 5 3 1 1 3 4 6 4 3 6 2 3 7 6 5 2 5 6 12 11 12 8 5 5 4 3 2 1 1 2 3 4 4 5 5 4
11 9 5 5 5 3 3 2 2 4 2 3 3 6 4 6 5 2 3 3 4 1 9 5 4 1 3 12 9 8 6 5 4 3 3 3 4 4 5 5 5 5 4
11 7 7 5 5 4 6 4 4 8 1 5 5 3 3 2 5 5 4 3 4 5 4 5 3 5 3 2 10 9 8 7 6 6 6 6 5 6 6 6 6 6 5
11 10 9 7 7 3 5 6 6 7 5 5 4 5 3 4 3 3 5 3 3 5 5 6 11 8 6 9 4 6 12 10 9 9 8 8 8 8 9 9 8 8 7
12 12 12 9 6 6 4 4 3 5 5 4 5 5 3 3 4 3 5 7 5 3 4 6 4 4 10 6 7 13 15 13 12 12 12 12 12 12 12 12 11 11 11
8 11 12 10 9 7 6 5 5 5 6 4 6 2 6 5 4 4 1 4 3 3 2 4 5 6 6 9 9 10 18 17 17 17 17 17 17 17 17 16 15 15 15
10 12 9 8 8 9 9 6 6 2 5 5 5 4 4 4 4 4 4 2 1 1 3 4 5 7 8 9 9 17 21 21 22 23 23 23 23 22 21 20 20 20 20
8 11 11 12 11 12 10 10 7 7 8 6 7 6 6 5 4 4 4 5 5 5 5 4 4 7 9 9 6 15 14 26 27 28 28 29 29 28 27 25 24 24 24
7 9 11 11 12 12 10 8 8 8 4 6 8 7 6 8 4 5 4 4 5 6 4 5 3 4 5 6 10 11 14 16 30 32 34 34 34 34 33 32 30 30 29
9 6 10 11 11 10 10 9 8 8 7 7 8 9 6 8 6 5 6 5 5 6 7 7 4 3 4 8 9 8 13 16 20 31 35 36 36 37 36 34 34 33 33
9 11 9 10 11 11 10 10 10 7 10 8 8 6 8 7 8 6 6 6 6 6 7 7 7 7 4 6 9 12 16 17 19 27 36 39 38 38 37 37 35 35 35
13 11 12 11 11 12 11 11 13 11 11 11 11 9 9 8 8 8 8 7 7 6 7 8 8 9 9 9 9 10 12 17 17 23 17 29 37 37 38 39 38 37 36
14 16 13 13 12 12 12 12 12 12 11 12 11 10 10 10 9 9 8 9 9 8 9 9 9 8 8 9 9 10 10 12 16 25 34 33 33 36 39 40 39 39 39
16 15 14 14 14 13 13 14 13 13 12 12 11 11 11 11 11 10 10 9 9 9 10 10 10 10 9 8 8 9 9 7 10 17 20 22 23 32 39 40 40 36 36
16 16 15 14 15 14 13 14 13 13 13 13 12 12 13 12 11 11 10 11 10 10 10 10 10 10 9 9 9 10 12 11 9 11 12 10 11 13 15 31 27 31 33
17 16 16 16 15 14 16 16 15 13 13 13 12 12 12 11 14 12 12 12 12 10 10 11 11 12 11 11 10 10 12 13 13 11 12 12 12 11 11 19 21 27 33
17 17 17 16 16 16 12 17 18 14 13 13 13 12 12 13 13 14 16 18 16 16 14 13 14 14 14 13 12 12 12 12 14 12 12 14 10 10 11 21 20 28 23
18 16 16 16 16 15 14 14 16 16 14 14 12 13 13 13 11 9 12 13 14 14 14 12 14 14 13 12 12 12 13 14 12 11 7 10 11 12 11 14 17 23 26
16 16 16 17 17 16 17 16 14 14 15 15 14 15 13 13 14 12 13 14 14 13 17 19 21 23 24 24 20 10 11 11 13 12 9 11 11 12 11 13 13 20 21
17 15 17 16 17 17 14 17 17 13 14 13 14 15 15 17 13 12 13 14 15 14 13 14 12 10 16 15 21 12 11 9 11 11 7 9 12 12 11 11 10 11 10
Wind_Direction
237 73 78 301 194 49 131 178 111 132 153 107 100 74 82 61 59 115 115 118 109 107 101 113 107 108 101 95 94 117 102 90 56 46 28 11 356 345 335 338 350 347 356
98 267 206 66 328 45 80 37 46 157 165 107 84 59 136 91 35 61 125 134 140 138 135 127 123 126 123 126 129 141 155 286 326 330 336 340 326 322 324 335 336 342 345
135 243 201 78 219 135 78 118 177 193 118 130 108 146 109 108 98 102 100 153 151 171 165 155 157 167 181 204 233 248 255 273 292 296 296 304 306 307 320 323 328 335 342
208 238 184 250 118 159 140 243 222 263 134 130 44 76 158 104 111 124 151 148 169 161 178 173 172 194 209 227 244 252 260 275 276 289 296 305 304 306 312 318 329 343 25
180 257 350 153 86 252 290 158 169 62 128 198 151 157 127 132 165 98 92 162 136 161 168 177 181 192 205 221 237 240 250 263 272 279 283 293 299 304 316 1 54 65 61
184 240 234 116 253 318 137 40 88 58 285 48 108 103 118 123 116 138 150 156 105 196 155 175 183 195 201 199 217 233 239 254 269 277 299 336 316 100 119 98 84 92 96
176 214 146 181 256 139 311 143 139 293 267 83 149 141 129 236 183 205 152 118 134 114 74 108 232 185 188 196 181 193 211 218 211 193 177 130 139 140 115 127 127 122 118
163 181 154 194 234 109 154 176 255 284 157 128 302 260 180 191 188 189 110 203 57 109 138 165 96 248 269 165 158 182 198 204 189 185 181 192 186 161 156 159 157 154 153
180 197 172 237 180 301 169 198 245 282 350 171 267 346 20 325 106 157 169 219 128 229 103 167 199 159 193 110 163 175 189 196 192 197 198 208 208 192 181 182 192 187 191
189 182 166 180 213 172 160 209 221 285 175 212 173 249 26 3 44 318 162 175 211 216 176 251 154 183 187 240 122 122 174 191 201 206 208 210 216 211 207 202 210 213 219
199 194 173 195 194 227 170 182 224 256 277 287 213 181 179 184 200 230 249 148 181 211 184 189 250 196 176 231 205 187 185 198 209 215 216 217 218 221 222 219 220 227 234
189 207 192 180 197 215 192 200 199 229 283 300 327 217 178 204 177 225 201 189 48 131 188 197 185 226 226 206 217 157 190 200 212 219 223 223 223 224 226 228 229 231 236
190 168 198 193 196 213 189 199 211 213 227 243 262 253 284 309 2 341 341 350 287 109 203 218 210 213 233 221 241 187 198 209 217 223 224 228 229 229 230 230 231 234 238
207 142 180 201 221 192 217 174 204 223 189 209 219 251 294 225 252 258 283 336 304 239 173 218 234 212 218 241 261 205 221 215 221 228 230 232 233 233 234 232 232 234 237
228 187 184 198 212 215 205 200 236 197 176 213 199 222 244 267 230 240 251 251 274 300 309 180 259 126 299 253 234 215 241 233 228 232 233 234 236 237 235 236 235 234 235
225 225 197 209 214 216 213 206 214 212 202 222 229 182 229 252 252 242 261 252 246 261 280 299 278 307 273 296 297 258 262 260 241 234 238 240 237 239 240 237 236 235 235
211 214 230 208 219 218 214 208 236 233 198 219 256 244 201 253 273 263 230 244 256 253 264 273 292 308 323 237 263 268 277 278 268 238 237 238 236 235 236 239 239 238 237
214 213 214 215 217 218 213 210 214 226 221 208 218 230 233 235 227 261 279 280 275 291 285 286 290 289 276 271 260 252 264 275 284 289 271 246 240 237 238 237 236 237 238
208 215 210 213 209 216 216 212 216 223 230 219 228 230 230 230 239 252 241 256 249 232 241 255 272 277 284 288 277 262 253 255 259 264 253 244 240 237 236 236 237 235 233
202 211 213 208 209 210 215 220 216 221 225 229 227 230 234 233 231 231 243 255 262 272 279 278 275 274 272 277 273 270 273 296 309 305 298 286 258 234 235 235 236 235 234
202 205 211 213 209 212 215 216 220 216 219 232 233 223 231 239 239 233 242 238 246 252 257 264 270 278 286 300 318 317 296 289 305 315 301 297 294 303 294 235 243 239 234
203 203 210 212 213 218 209 201 210 222 220 222 230 232 239 223 229 234 239 257 269 279 279 280 282 284 290 290 292 307 312 304 301 294 316 307 304 298 300 292 296 238 231
201 205 209 212 215 218 207 197 200 220 223 224 229 231 235 238 217 230 223 232 243 247 239 259 266 269 283 287 294 297 292 292 295 313 297 289 296 292 286 285 293 289 256
203 203 209 211 216 218 204 195 198 215 227 238 234 229 233 248 259 254 237 238 230 234 233 236 237 251 259 262 257 270 290 286 283 282 276 296 304 292 292 306 290 277 285
204 205 208 211 213 220 198 194 187 217 227 233 235 241 245 239 232 220 249 260 267 269 272 264 246 248 250 261 265 285 282 285 292 297 310 294 303 319 318 306 304 311 302
206 207 210 210 212 217 195 194 191 220 224 229 229 234 232 241 242 212 230 246 254 258 263 272 278 263 253 258 254 242 259 264 279 295 316 316 317 321 313 296 298 297 302